QPF
0.00 0.00 0.01 0.08 0.11 0.15 0.11 0.01 0.03 0.04 0.02 0.00 0.00 0.00 0.00 0.00 0.00 0.00 0.00 0.00 0.00 0.00 0.00 0.00 0.01 0.01 0.00 0.01 0.02 0.00 0.00 0.00 0.01 0.00 0.00 0.00 0.00 0.00 0.00 0.00 0.00 0.00 0.00 0.00 0.00 0.00 0.00 0.00 0.00
0.00 0.00 0.07 0.12 0.14 0.09 0.04 0.00 0.01 0.02 0.00 0.00 0.00 0.00 0.00 0.00 0.00 0.00 0.00 0.00 0.00 0.00 0.00 0.00 0.00 0.03 0.02 0.02 0.00 0.00 0.00 0.00 0.00 0.00 0.00 0.00 0.00 0.00 0.00 0.00 0.00 0.00 0.00 0.00 0.00 0.00 0.00 0.00 0.00
0.00 0.03 0.12 0.22 0.13 0.01 0.03 0.01 0.02 0.00 0.00 0.00 0.00 0.00 0.00 0.00 0.00 0.00 0.00 0.00 0.00 0.00 0.00 0.00 0.00 0.02 0.03 0.01 0.00 0.00 0.00 0.00 0.00 0.00 0.00 0.00 0.00 0.00 0.00 0.00 0.00 0.00 0.00 0.00 0.00 0.00 0.00 0.00 0.00
0.01 0.09 0.06 0.09 0.07 0.01 0.01 0.00 0.00 0.00 0.00 0.00 0.00 0.00 0.00 0.00 0.00 0.00 0.00 0.00 0.00 0.00 0.00 0.00 0.00 0.02 0.02 0.00 0.00 0.00 0.00 0.00 0.00 0.00 0.00 0.00 0.00 0.00 0.00 0.00 0.00 0.00 0.00 0.00 0.00 0.00 0.00 0.00 0.00
0.06 0.12 0.13 0.14 0.04 0.00 0.00 0.00 0.00 0.00 0.00 0.00 0.00 0.00 0.01 0.00 0.00 0.00 0.00 0.00 0.01 0.01 0.00 0.00 0.02 0.02 0.00 0.00 0.00 0.00 0.00 0.00 0.00 0.00 0.00 0.00 0.00 0.00 0.00 0.00 0.00 0.00 0.00 0.00 0.00 0.00 0.00 0.00 0.00
0.09 0.09 0.02 0.01 0.00 0.00 0.00 0.00 0.00 0.01 0.00 0.00 0.00 0.00 0.01 0.00 0.00 0.00 0.00 0.00 0.00 0.00 0.00 0.00 0.01 0.01 0.00 0.00 0.00 0.00 0.00 0.00 0.00 0.00 0.00 0.00 0.00 0.00 0.00 0.00 0.00 0.00 0.00 0.00 0.00 0.00 0.00 0.00 0.00
0.03 0.17 0.06 0.00 0.00 0.00 0.00 0.00 0.00 0.00 0.00 0.00 0.00 0.00 0.01 0.03 0.00 0.00 0.00 0.00 0.00 0.00 0.00 0.00 0.00 0.00 0.00 0.00 0.00 0.00 0.00 0.00 0.00 0.00 0.00 0.00 0.00 0.00 0.00 0.00 0.00 0.00 0.00 0.00 0.00 0.00 0.00 0.00 0.00
0.00 0.04 0.05 0.01 0.00 0.00 0.00 0.00 0.00 0.00 0.00 0.00 0.00 0.00 0.01 0.01 0.00 0.00 0.00 0.00 0.01 0.00 0.00 0.00 0.00 0.00 0.00 0.00 0.00 0.00 0.00 0.00 0.00 0.00 0.00 0.00 0.00 0.00 0.00 0.00 0.00 0.00 0.00 0.00 0.00 0.00 0.00 0.01 0.00
0.00 0.07 0.02 0.00 0.00 0.00 0.00 0.00 0.00 0.00 0.00 0.00 0.00 0.00 0.00 0.00 0.00 0.00 0.00 0.00 0.00 0.01 0.00 0.00 0.00 0.00 0.00 0.00 0.00 0.00 0.00 0.00 0.00 0.00 0.01 0.06 0.05 0.01 0.01 0.00 0.00 0.00 0.00 0.00 0.02 0.04 0.00 0.01 0.00
0.00 0.08 0.03 0.00 0.00 0.00 0.00 0.00 0.00 0.00 0.00 0.00 0.00 0.00 0.00 0.00 0.00 0.00 0.00 0.00 0.00 0.00 0.00 0.00 0.00 0.00 0.00 0.00 0.00 0.00 0.00 0.00 0.00 0.03 0.03 0.08 0.06 0.04 0.00 0.00 0.00 0.00 0.00 0.01 0.04 0.04 0.06 0.00 0.00
0.00 0.02 0.01 0.00 0.00 0.00 0.00 0.00 0.00 0.00 0.00 0.00 0.00 0.00 0.00 0.00 0.00 0.00 0.00 0.00 0.00 0.00 0.00 0.00 0.00 0.00 0.00 0.00 0.00 0.00 0.00 0.00 0.01 0.08 0.15 0.13 0.13 0.04 0.01 0.00 0.02 0.05 0.02 0.01 0.03 0.01 0.03 0.00 0.00
0.00 0.03 0.01 0.00 0.00 0.01 0.01 0.00 0.00 0.00 0.00 0.00 0.00 0.00 0.00 0.00 0.00 0.00 0.00 0.00 0.00 0.00 0.00 0.00 0.00 0.00 0.00 0.00 0.00 0.00 0.00 0.00 0.00 0.00 0.01 0.07 0.06 0.17 0.08 0.03 0.11 0.16 0.07 0.02 0.00 0.00 0.00 0.00 0.00
0.00 0.00 0.01 0.00 0.00 0.00 0.02 0.02 0.00 0.00 0.00 0.00 0.00 0.00 0.00 0.00 0.00 0.00 0.00 0.00 0.00 0.00 0.00 0.00 0.00 0.00 0.00 0.00 0.00 0.00 0.00 0.00 0.00 0.00 0.00 0.00 0.04 0.05 0.03 0.04 0.02 0.01 0.06 0.01 0.00 0.00 0.00 0.00 0.00
0.00 0.00 0.01 0.00 0.00 0.00 0.00 0.00 0.00 0.00 0.00 0.00 0.00 0.00 0.00 0.00 0.00 0.00 0.00 0.00 0.00 0.00 0.00 0.00 0.00 0.00 0.00 0.00 0.00 0.00 0.00 0.00 0.00 0.00 0.00 0.00 0.02 0.03 0.01 0.01 0.01 0.00 0.03 0.00 0.00 0.00 0.00 0.00 0.00
0.00 0.00 0.01 0.00 0.00 0.00 0.00 0.00 0.00 0.00 0.00 0.00 0.00 0.00 0.00 0.00 0.00 0.00 0.00 0.00 0.00 0.00 0.00 0.00 0.00 0.00 0.00 0.00 0.00 0.00 0.00 0.00 0.00 0.00 0.00 0.00 0.00 0.02 0.01 0.02 0.01 0.01 0.01 0.00 0.00 0.00 0.03 0.00 0.00
0.00 0.00 0.00 0.00 0.00 0.00 0.00 0.00 0.00 0.00 0.00 0.00 0.00 0.00 0.00 0.00 0.00 0.00 0.00 0.00 0.00 0.00 0.00 0.00 0.00 0.00 0.00 0.00 0.00 0.00 0.00 0.00 0.00 0.00 0.00 0.00 0.00 0.01 0.01 0.05 0.03 0.02 0.00 0.00 0.00 0.00 0.00 0.00 0.00
0.00 0.00 0.00 0.00 0.00 0.00 0.00 0.00 0.00 0.00 0.00 0.00 0.00 0.00 0.00 0.00 0.00 0.00 0.00 0.00 0.00 0.00 0.00 0.00 0.00 0.00 0.00 0.00 0.00 0.00 0.00 0.00 0.00 0.00 0.00 0.00 0.00 0.00 0.03 0.16 0.15 0.07 0.01 0.00 0.00 0.00 0.00 0.00 0.00
0.00 0.00 0.00 0.00 0.00 0.00 0.00 0.00 0.00 0.00 0.00 0.00 0.00 0.00 0.00 0.00 0.00 0.00 0.00 0.00 0.00 0.00 0.00 0.00 0.00 0.00 0.00 0.00 0.00 0.00 0.00 0.00 0.00 0.00 0.00 0.00 0.00 0.00 0.04 0.09 0.09 0.03 0.02 0.00 0.00 0.00 0.00 0.00 0.00
0.00 0.00 0.00 0.00 0.00 0.00 0.00 0.00 0.00 0.00 0.00 0.00 0.00 0.00 0.00 0.00 0.00 0.00 0.00 0.00 0.00 0.00 0.00 0.00 0.00 0.00 0.00 0.00 0.00 0.00 0.00 0.00 0.00 0.00 0.00 0.00 0.00 0.00 0.02 0.07 0.02 0.01 0.01 0.01 0.00 0.00 0.00 0.00 0.00
0.00 0.00 0.00 0.00 0.00 0.00 0.00 0.00 0.00 0.00 0.00 0.00 0.00 0.00 0.00 0.00 0.00 0.00 0.00 0.00 0.00 0.00 0.00 0.00 0.00 0.00 0.00 0.00 0.00 0.00 0.00 0.00 0.00 0.00 0.00 0.00 0.00 0.00 0.03 0.09 0.07 0.03 0.01 0.00 0.00 0.00 0.01 0.00 0.00
0.00 0.00 0.00 0.00 0.00 0.00 0.00 0.00 0.00 0.00 0.00 0.00 0.00 0.00 0.00 0.00 0.00 0.00 0.00 0.00 0.00 0.00 0.00 0.00 0.00 0.00 0.00 0.00 0.00 0.00 0.00 0.00 0.00 0.00 0.00 0.00 0.00 0.01 0.07 0.05 0.06 0.03 0.03 0.05 0.04 0.00 0.00 0.00 0.00
0.00 0.00 0.00 0.00 0.00 0.00 0.00 0.00 0.00 0.00 0.00 0.00 0.00 0.00 0.00 0.00 0.00 0.00 0.00 0.00 0.00 0.00 0.00 0.00 0.00 0.00 0.00 0.00 0.00 0.00 0.00 0.00 0.00 0.00 0.00 0.00 0.00 0.00 0.01 0.01 0.03 0.02 0.03 0.03 0.04 0.00 0.00 0.00 0.00
0.00 0.00 0.00 0.00 0.00 0.00 0.00 0.00 0.00 0.00 0.00 0.00 0.00 0.00 0.00 0.00 0.00 0.00 0.00 0.00 0.00 0.00 0.00 0.00 0.00 0.00 0.00 0.00 0.00 0.00 0.00 0.00 0.00 0.00 0.00 0.00 0.02 0.01 0.00 0.02 0.02 0.02 0.02 0.03 0.02 0.00 0.00 0.00 0.00
0.00 0.00 0.00 0.00 0.00 0.00 0.00 0.00 0.00 0.00 0.00 0.00 0.00 0.00 0.00 0.00 0.00 0.00 0.00 0.00 0.00 0.00 0.00 0.00 0.00 0.00 0.00 0.00 0.00 0.00 0.00 0.00 0.00 0.00 0.00 0.00 0.00 0.00 0.00 0.02 0.04 0.02 0.01 0.01 0.00 0.00 0.00 0.00 0.00
0.00 0.00 0.00 0.00 0.00 0.00 0.00 0.00 0.00 0.00 0.00 0.00 0.00 0.00 0.00 0.00 0.00 0.00 0.00 0.00 0.00 0.00 0.00 0.00 0.00 0.00 0.00 0.00 0.00 0.00 0.00 0.00 0.00 0.00 0.00 0.00 0.00 0.00 0.00 0.00 0.02 0.00 0.01 0.01 0.00 0.00 0.00 0.00 0.00
0.00 0.00 0.00 0.00 0.00 0.00 0.00 0.00 0.00 0.00 0.00 0.00 0.00 0.00 0.00 0.00 0.00 0.00 0.00 0.00 0.00 0.00 0.00 0.00 0.00 0.00 0.00 0.00 0.00 0.00 0.00 0.00 0.00 0.00 0.00 0.00 0.00 0.00 0.00 0.00 0.00 0.00 0.00 0.00 0.01 0.00 0.00 0.00 0.00
0.00 0.00 0.00 0.00 0.00 0.00 0.00 0.00 0.00 0.00 0.00 0.00 0.00 0.00 0.00 0.00 0.00 0.00 0.00 0.00 0.00 0.00 0.00 0.00 0.00 0.00 0.00 0.00 0.00 0.00 0.00 0.00 0.00 0.00 0.00 0.00 0.00 0.00 0.00 0.00 0.00 0.00 0.00 0.00 0.00 0.00 0.00 0.00 0.00
0.00 0.00 0.00 0.00 0.00 0.00 0.00 0.00 0.00 0.00 0.00 0.00 0.00 0.00 0.00 0.00 0.00 0.00 0.00 0.00 0.00 0.00 0.00 0.00 0.00 0.00 0.00 0.00 0.00 0.00 0.00 0.00 0.00 0.00 0.00 0.00 0.00 0.00 0.00 0.00 0.00 0.00 0.00 0.00 0.00 0.00 0.00 0.00 0.00
0.00 0.00 0.00 0.00 0.00 0.00 0.00 0.00 0.00 0.00 0.00 0.00 0.00 0.00 0.00 0.00 0.00 0.00 0.00 0.00 0.00 0.00 0.00 0.00 0.00 0.00 0.00 0.00 0.00 0.00 0.00 0.00 0.00 0.00 0.00 0.00 0.00 0.00 0.00 0.01 0.00 0.00 0.00 0.00 0.00 0.00 0.00 0.00 0.00
0.00 0.00 0.00 0.00 0.00 0.00 0.00 0.00 0.00 0.00 0.00 0.00 0.00 0.00 0.00 0.00 0.00 0.00 0.00 0.00 0.00 0.00 0.00 0.00 0.00 0.00 0.00 0.00 0.00 0.00 0.00 0.00 0.00 0.00 0.00 0.00 0.00 0.00 0.00 0.00 0.00 0.00 0.00 0.00 0.00 0.00 0.00 0.00 0.00
MSLP
1009.21 1009.25 1009.02 1009.53 1009.65 1008.23 1006.40 1005.65 1004.91 1003.49 1003.01 1002.88 1002.91 1004.00 1005.17 1006.63 1008.09 1010.58 1011.59 1012.27 1012.78 1013.01 1013.64 1013.89 1014.19 1014.46 1014.80 1015.09 1015.30 1015.56 1015.72 1015.87 1016.01 1016.16 1016.22 1016.35 1016.49 1016.59 1016.63 1016.71 1016.77 1016.87 1016.94 1017.04 1017.08 1017.21 1017.36 1017.49 1017.59
1008.23 1008.38 1008.89 1008.71 1008.25 1006.54 1004.62 1003.41 1003.09 1002.50 1002.16 1002.79 1003.37 1004.07 1005.17 1007.36 1008.71 1010.34 1011.35 1012.25 1012.44 1012.54 1013.21 1014.01 1014.43 1014.74 1015.03 1015.33 1015.55 1015.74 1015.87 1016.08 1016.24 1016.32 1016.44 1016.54 1016.68 1016.76 1016.78 1016.84 1016.91 1017.01 1017.12 1017.17 1017.25 1017.38 1017.49 1017.58 1017.71
1007.86 1008.21 1008.83 1007.83 1006.50 1005.33 1003.42 1002.23 1001.58 1001.30 1001.90 1002.84 1003.86 1004.71 1005.43 1007.69 1009.13 1010.33 1011.32 1012.03 1012.31 1012.22 1012.91 1014.20 1014.64 1014.96 1015.29 1015.49 1015.75 1015.91 1016.10 1016.27 1016.41 1016.53 1016.66 1016.77 1016.87 1016.89 1016.95 1016.98 1017.09 1017.22 1017.29 1017.33 1017.39 1017.48 1017.57 1017.66 1017.77
1008.09 1008.44 1008.34 1007.07 1005.34 1003.70 1001.35 1000.79 1000.44 1000.94 1001.86 1003.10 1003.93 1005.62 1007.09 1007.91 1009.33 1009.63 1011.49 1012.15 1012.17 1012.64 1013.05 1014.50 1014.84 1015.17 1015.40 1015.67 1015.96 1016.14 1016.33 1016.51 1016.66 1016.81 1016.88 1016.96 1017.05 1017.05 1017.11 1017.16 1017.29 1017.38 1017.47 1017.52 1017.59 1017.63 1017.71 1017.72 1017.74
1007.76 1007.53 1007.79 1005.80 1003.87 1001.24 999.78 999.35 999.53 1000.34 1001.93 1002.90 1004.04 1006.38 1007.99 1008.91 1009.49 1010.15 1011.58 1011.97 1011.99 1012.67 1013.41 1014.49 1015.05 1015.36 1015.58 1015.89 1016.15 1016.35 1016.58 1016.81 1016.99 1017.11 1017.13 1017.18 1017.23 1017.27 1017.26 1017.27 1017.31 1017.46 1017.60 1017.67 1017.77 1017.80 1017.78 1017.84 1017.86
1007.44 1008.19 1007.20 1005.26 1002.88 999.69 998.81 998.57 999.48 1000.51 1001.84 1003.23 1004.90 1006.64 1008.63 1009.07 1009.63 1010.75 1011.52 1011.72 1012.22 1012.55 1013.43 1014.55 1015.22 1015.53 1015.82 1016.05 1016.34 1016.60 1016.85 1017.09 1017.22 1017.26 1017.30 1017.38 1017.42 1017.42 1017.41 1017.35 1017.37 1017.48 1017.57 1017.67 1017.77 1017.88 1017.97 1017.95 1017.98
1006.16 1006.45 1005.56 1004.31 1001.39 999.17 998.23 998.15 998.56 999.40 1000.97 1003.08 1004.97 1006.47 1008.75 1009.20 1009.91 1010.74 1011.26 1011.95 1012.22 1012.45 1013.22 1014.48 1015.07 1015.63 1015.98 1016.20 1016.52 1016.82 1017.08 1017.24 1017.35 1017.41 1017.48 1017.47 1017.42 1017.47 1017.54 1017.58 1017.63 1017.74 1017.87 1017.90 1017.97 1018.02 1018.10 1018.19 1018.15
1003.79 1003.80 1003.61 1003.63 1001.47 999.07 998.27 998.44 998.31 999.50 1001.08 1002.97 1004.40 1006.50 1008.29 1009.15 1009.88 1010.69 1011.41 1011.64 1011.99 1012.41 1013.24 1014.18 1014.89 1015.52 1015.88 1016.30 1016.70 1016.98 1017.17 1017.35 1017.42 1017.32 1017.36 1017.46 1017.71 1017.65 1017.74 1017.89 1017.97 1017.89 1017.79 1017.92 1018.09 1017.97 1017.86 1018.11 1018.19
1003.35 1003.92 1003.39 1002.10 1001.18 1000.45 998.39 998.67 999.96 1000.11 1001.01 1002.03 1003.39 1005.59 1007.85 1009.24 1009.82 1010.70 1011.15 1011.89 1011.89 1012.56 1013.08 1013.82 1014.50 1015.15 1015.61 1016.08 1016.67 1017.00 1017.20 1017.40 1017.35 1017.35 1017.42 1017.44 1017.51 1017.68 1018.00 1018.11 1018.28 1018.26 1018.37 1018.45 1018.36 1018.18 1017.96 1018.01 1018.31
1002.74 1004.54 1004.10 1002.58 1002.57 1000.22 999.34 998.92 999.76 1000.36 1001.11 1002.99 1004.81 1007.20 1008.52 1009.36 1009.93 1010.61 1010.69 1011.27 1011.68 1012.26 1012.59 1013.36 1013.95 1014.62 1015.25 1015.51 1016.53 1016.71 1016.92 1017.26 1017.63 1017.41 1016.20 1016.59 1017.34 1017.77 1018.10 1018.32 1018.39 1018.31 1018.45 1018.72 1018.33 1018.32 1017.81 1017.64 1018.18
1001.10 1003.04 1003.72 1001.65 1002.27 1000.46 1000.08 999.16 999.20 1000.08 1001.15 1003.15 1005.03 1006.79 1008.27 1009.11 1010.00 1010.47 1010.77 1010.89 1011.67 1011.65 1012.07 1012.84 1013.69 1014.29 1014.70 1015.15 1016.02 1016.09 1016.25 1016.91 1016.98 1017.34 1016.52 1017.10 1017.25 1017.55 1017.63 1018.25 1018.85 1019.00 1018.66 1018.76 1018.32 1018.59 1017.78 1017.78 1017.99
1000.00 1001.63 1002.10 1001.07 1000.29 999.96 1001.65 1001.68 1000.36 999.82 1000.56 1002.51 1005.18 1006.35 1007.47 1008.86 1009.61 1009.95 1010.66 1010.72 1010.93 1011.09 1011.47 1012.23 1013.23 1014.03 1014.32 1014.90 1015.29 1015.23 1015.36 1015.98 1016.70 1016.67 1016.30 1015.99 1016.67 1018.03 1018.03 1017.86 1019.06 1018.36 1018.55 1018.52 1018.26 1018.14 1017.54 1017.32 1017.23
999.00 1000.22 1000.72 1001.01 999.49 1000.01 1002.15 1001.18 1001.55 1000.31 1000.66 1002.16 1004.71 1006.15 1007.07 1008.05 1009.09 1009.90 1010.45 1010.48 1010.70 1010.78 1011.04 1011.92 1013.02 1013.75 1014.08 1014.43 1014.58 1014.72 1014.74 1014.98 1015.18 1015.78 1016.23 1016.22 1016.96 1017.77 1018.13 1018.18 1018.15 1017.97 1018.34 1017.99 1017.57 1017.52 1017.47 1017.62 1017.50
998.12 998.20 998.18 998.76 997.81 999.32 999.88 1000.55 1000.04 1000.41 1000.30 1001.71 1003.90 1005.25 1005.99 1006.73 1007.90 1008.73 1009.59 1009.94 1009.99 1010.11 1010.75 1011.65 1012.81 1013.61 1013.94 1014.39 1014.37 1014.88 1014.58 1014.76 1014.83 1014.91 1015.48 1016.08 1016.96 1017.48 1017.27 1017.70 1017.65 1017.95 1017.81 1017.58 1017.27 1017.39 1017.72 1017.92 1017.75
997.54 997.59 997.38 998.29 997.05 997.10 997.68 999.37 999.56 1002.17 1000.50 1001.72 1003.15 1004.47 1005.11 1005.57 1006.53 1007.38 1008.16 1008.80 1009.12 1009.69 1010.52 1011.51 1012.58 1013.42 1014.17 1014.52 1014.60 1014.71 1014.58 1014.68 1014.79 1014.93 1015.31 1015.58 1016.25 1016.67 1016.99 1017.53 1017.66 1017.91 1017.65 1017.34 1017.12 1017.47 1017.60 1018.34 1017.83
997.16 997.33 996.87 996.36 996.32 996.53 997.11 997.22 998.31 999.30 999.94 1000.96 1002.42 1003.59 1004.47 1004.95 1005.46 1006.28 1007.05 1007.73 1008.41 1009.37 1010.38 1011.26 1012.03 1013.13 1014.06 1014.64 1014.80 1014.90 1014.85 1014.73 1014.60 1014.69 1014.98 1015.53 1016.29 1016.71 1017.16 1017.62 1017.96 1017.87 1017.34 1017.32 1017.32 1017.66 1018.23 1018.29 1018.01
996.69 996.28 996.17 995.51 995.57 995.94 996.31 996.35 996.94 997.66 998.51 999.80 1001.39 1002.76 1003.66 1004.47 1004.94 1005.60 1006.27 1007.13 1008.00 1009.04 1010.12 1010.97 1011.71 1012.64 1013.66 1014.45 1014.74 1015.14 1014.95 1014.77 1014.52 1014.44 1014.67 1015.36 1016.26 1016.88 1017.18 1018.01 1018.75 1018.14 1017.62 1017.45 1017.34 1017.57 1017.72 1017.88 1017.89
995.81 996.01 995.26 994.90 994.72 995.14 995.23 995.51 995.89 996.57 997.65 998.31 999.56 1001.31 1002.79 1003.59 1004.12 1005.04 1005.92 1006.78 1007.74 1008.75 1009.88 1010.84 1011.67 1012.44 1013.29 1014.16 1014.78 1014.96 1015.01 1014.74 1014.59 1014.43 1014.47 1015.21 1015.94 1016.78 1017.16 1018.11 1018.05 1017.57 1017.83 1017.75 1017.34 1017.38 1017.43 1017.62 1017.80
995.82 995.36 994.84 993.95 993.98 994.35 994.63 994.89 995.16 996.11 997.06 997.92 998.69 999.95 1001.32 1002.64 1003.66 1004.61 1005.62 1006.51 1007.41 1008.48 1009.63 1010.58 1011.46 1012.22 1012.97 1013.67 1014.36 1014.61 1014.80 1014.75 1014.80 1014.52 1014.51 1015.00 1015.38 1016.13 1016.87 1017.28 1017.15 1017.00 1017.45 1017.33 1017.35 1017.46 1017.74 1017.97 1017.79
995.81 994.81 993.81 993.49 992.95 993.94 993.73 994.07 994.29 994.80 995.48 996.93 997.48 998.35 999.87 1001.66 1002.73 1003.82 1004.95 1005.82 1006.79 1007.92 1009.07 1010.18 1011.09 1011.94 1012.54 1013.16 1013.86 1014.27 1014.31 1014.39 1014.51 1014.41 1014.38 1014.55 1014.95 1015.53 1016.01 1016.51 1017.10 1016.80 1016.96 1016.80 1017.12 1017.59 1017.98 1017.87 1017.97
995.20 994.57 993.59 992.88 992.70 994.36 993.68 993.64 993.48 994.18 995.64 995.25 996.17 997.29 998.52 1000.28 1001.52 1002.73 1003.88 1004.82 1005.96 1007.19 1008.35 1009.58 1010.56 1011.44 1012.15 1012.76 1013.42 1013.87 1014.05 1014.08 1014.13 1014.23 1014.47 1014.62 1014.83 1015.21 1015.61 1015.91 1016.44 1016.66 1016.86 1017.07 1017.26 1017.52 1017.72 1018.00 1018.04
994.19 994.43 993.90 992.97 992.41 992.37 992.61 992.73 992.96 993.13 993.69 994.71 995.45 996.49 997.22 998.75 1000.48 1002.08 1003.33 1004.39 1005.20 1006.31 1007.74 1008.99 1010.05 1010.96 1011.71 1012.36 1012.85 1013.17 1013.45 1013.59 1013.74 1013.82 1014.11 1014.41 1014.61 1014.89 1015.20 1015.64 1016.07 1016.30 1016.50 1016.94 1017.32 1017.41 1017.65 1017.87 1018.08
993.70 993.86 993.91 993.41 992.83 992.71 991.87 992.25 991.85 992.52 992.53 993.22 994.01 994.87 995.79 997.16 998.81 1000.64 1002.09 1003.37 1004.28 1005.53 1006.84 1008.14 1009.42 1010.45 1011.21 1011.94 1012.24 1012.67 1012.98 1013.19 1013.33 1013.44 1013.70 1013.97 1014.33 1014.47 1014.70 1015.30 1015.60 1016.08 1016.52 1016.88 1017.03 1017.20 1017.45 1017.75 1018.06
993.57 993.53 993.67 993.80 993.40 992.21 991.93 991.70 991.06 990.88 991.50 991.86 992.75 993.78 994.80 995.90 997.45 999.10 1000.87 1002.67 1003.90 1004.92 1006.24 1007.49 1008.73 1009.77 1010.60 1011.31 1011.85 1012.07 1012.41 1012.73 1012.95 1013.11 1013.24 1013.41 1013.88 1014.35 1014.42 1014.71 1015.22 1015.72 1016.16 1016.45 1016.57 1016.78 1017.23 1017.58 1017.77
992.77 993.06 992.82 992.63 992.25 991.65 992.34 991.46 990.39 989.93 990.23 990.77 991.41 992.60 993.47 994.56 996.02 997.81 999.74 1001.21 1002.78 1003.77 1005.02 1006.36 1007.59 1008.72 1009.67 1010.39 1011.05 1011.50 1011.68 1012.27 1012.48 1012.55 1012.87 1012.94 1013.23 1013.65 1014.03 1014.35 1014.93 1015.49 1015.78 1015.94 1015.96 1016.54 1016.90 1017.31 1017.70
991.24 991.58 991.00 991.19 991.49 992.07 992.36 990.59 989.97 990.29 989.63 989.59 990.07 990.99 992.18 993.39 994.81 996.52 998.50 1000.04 1001.59 1002.87 1003.96 1005.15 1006.37 1007.60 1008.61 1009.38 1010.01 1010.73 1011.32 1011.51 1011.92 1012.10 1011.99 1012.42 1012.55 1012.69 1012.99 1013.62 1014.12 1014.59 1015.17 1015.59 1015.69 1016.33 1016.75 1017.06 1017.48
990.35 990.13 991.40 991.60 991.65 991.14 990.60 990.59 990.31 989.71 989.48 989.22 989.27 989.81 990.86 992.14 993.51 995.16 996.99 998.81 1000.37 1001.73 1002.93 1003.88 1005.15 1006.38 1007.39 1008.14 1008.99 1009.82 1010.54 1010.83 1011.06 1011.46 1011.56 1011.75 1012.01 1012.05 1012.22 1012.97 1013.61 1014.19 1014.72 1015.17 1015.72 1016.04 1016.34 1016.53 1016.95
988.90 990.66 991.09 991.10 990.56 989.86 989.31 988.48 987.88 988.30 988.38 988.80 988.79 988.93 989.80 991.11 992.49 994.12 995.79 997.56 999.05 1000.25 1001.73 1003.19 1004.21 1005.27 1006.15 1007.15 1007.87 1008.45 1009.04 1009.81 1010.34 1010.78 1011.10 1011.26 1011.51 1011.79 1012.01 1012.49 1013.10 1013.68 1014.23 1014.72 1015.23 1015.49 1015.84 1016.19 1016.40
988.73 988.93 990.08 990.76 990.47 989.66 988.54 986.63 985.47 986.24 986.92 987.58 988.28 988.95 989.43 990.29 991.56 992.94 994.64 996.25 997.71 999.32 1000.68 1002.08 1003.36 1004.50 1005.51 1006.41 1007.06 1007.71 1008.39 1009.12 1009.68 1010.02 1010.39 1010.74 1011.15 1011.49 1011.68 1012.34 1012.69 1013.07 1013.50 1014.10 1014.54 1014.87 1015.08 1015.38 1015.82
988.13 988.53 988.92 989.24 989.69 989.39 988.15 986.29 985.46 985.14 986.00 986.96 987.73 988.39 989.44 989.94 990.91 992.13 993.50 995.08 996.74 998.19 999.51 1000.62 1002.06 1003.11 1004.25 1005.25 1006.14 1006.83 1007.40 1008.00 1008.68 1009.27 1009.56 1009.97 1010.42 1010.84 1011.21 1011.53 1012.04 1012.39 1012.73 1013.21 1013.63 1014.00 1014.24 1014.43 1014.89
Thickness
5794 5793 5795 5780 5763 5768 5773 5781 5792 5798 5806 5825 5831 5815 5804 5801 5787 5757 5781 5779 5776 5774 5767 5766 5766 5764 5761 5758 5757 5756 5755 5755 5755 5754 5753 5752 5751 5752 5753 5753 5753 5753 5753 5753 5753 5751 5749 5747 5746
5802 5800 5790 5778 5759 5757 5770 5812 5799 5813 5827 5830 5826 5819 5807 5783 5791 5779 5779 5781 5780 5779 5772 5767 5765 5762 5760 5758 5757 5756 5755 5755 5754 5754 5753 5752 5751 5752 5753 5754 5754 5754 5754 5754 5753 5751 5750 5749 5747
5806 5801 5773 5770 5766 5762 5772 5811 5819 5832 5835 5825 5813 5819 5811 5786 5791 5784 5787 5784 5782 5783 5775 5768 5764 5762 5759 5758 5756 5756 5755 5755 5754 5754 5753 5752 5752 5753 5754 5754 5754 5754 5754 5754 5753 5752 5750 5749 5748
5796 5787 5785 5770 5780 5795 5815 5825 5836 5831 5832 5828 5822 5797 5803 5807 5791 5799 5789 5783 5783 5780 5776 5765 5763 5762 5760 5758 5757 5756 5755 5755 5754 5753 5753 5753 5754 5755 5755 5755 5755 5755 5754 5754 5753 5752 5751 5750 5750
5797 5790 5757 5748 5792 5828 5846 5850 5849 5833 5824 5822 5821 5791 5784 5796 5801 5798 5787 5786 5786 5781 5774 5766 5763 5761 5760 5758 5757 5756 5755 5754 5753 5753 5754 5754 5755 5755 5757 5757 5757 5756 5755 5754 5753 5753 5752 5751 5750
5779 5772 5755 5764 5789 5846 5854 5859 5845 5831 5827 5821 5807 5794 5781 5800 5798 5792 5789 5788 5785 5783 5775 5766 5763 5761 5759 5759 5757 5756 5754 5753 5754 5754 5755 5755 5756 5757 5758 5759 5759 5759 5758 5756 5756 5755 5753 5752 5750
5784 5754 5759 5770 5793 5836 5850 5865 5848 5844 5832 5817 5817 5790 5785 5792 5798 5794 5792 5789 5786 5783 5778 5767 5764 5761 5759 5759 5757 5756 5754 5754 5754 5753 5754 5756 5759 5760 5759 5759 5759 5757 5755 5755 5755 5754 5752 5751 5751
5813 5813 5781 5774 5799 5827 5856 5856 5863 5845 5829 5838 5827 5787 5777 5793 5799 5796 5792 5790 5788 5785 5778 5771 5766 5762 5761 5760 5758 5756 5755 5753 5753 5758 5760 5759 5756 5760 5761 5761 5759 5761 5764 5763 5759 5759 5759 5754 5752
5828 5787 5790 5809 5814 5815 5861 5845 5848 5855 5838 5839 5834 5814 5804 5800 5800 5791 5787 5783 5786 5783 5781 5775 5770 5766 5765 5763 5759 5758 5757 5755 5760 5761 5764 5765 5763 5761 5763 5761 5758 5758 5757 5758 5761 5760 5760 5759 5754
5810 5760 5768 5814 5812 5828 5846 5850 5842 5835 5831 5819 5813 5806 5801 5799 5794 5786 5787 5782 5783 5781 5784 5781 5776 5772 5769 5769 5762 5763 5762 5759 5757 5763 5779 5780 5768 5760 5757 5759 5760 5761 5758 5755 5761 5763 5765 5767 5758
5828 5788 5793 5820 5818 5851 5841 5847 5854 5836 5819 5819 5804 5801 5799 5796 5790 5787 5788 5789 5784 5789 5790 5787 5781 5777 5776 5774 5769 5770 5770 5761 5769 5767 5778 5748 5767 5762 5770 5762 5755 5761 5761 5757 5762 5764 5768 5768 5763
5821 5813 5818 5828 5843 5848 5817 5823 5830 5845 5835 5837 5816 5812 5806 5794 5791 5792 5787 5791 5792 5794 5795 5793 5786 5782 5781 5778 5777 5780 5781 5776 5767 5770 5777 5776 5779 5761 5771 5772 5759 5773 5764 5761 5765 5766 5772 5772 5770
5831 5818 5826 5820 5843 5839 5811 5829 5819 5832 5847 5844 5823 5812 5805 5801 5796 5795 5794 5797 5797 5797 5800 5796 5790 5786 5784 5784 5785 5787 5789 5788 5785 5780 5776 5781 5777 5768 5768 5765 5770 5770 5765 5768 5772 5772 5772 5771 5771
5846 5848 5853 5847 5868 5847 5835 5831 5841 5838 5850 5840 5823 5814 5815 5813 5803 5802 5798 5797 5801 5805 5803 5801 5793 5788 5786 5786 5788 5788 5791 5792 5792 5793 5788 5785 5781 5778 5778 5773 5774 5770 5775 5777 5778 5775 5772 5769 5770
5848 5831 5849 5841 5864 5865 5869 5828 5830 5812 5839 5831 5824 5817 5818 5818 5816 5810 5809 5807 5811 5809 5807 5802 5796 5791 5786 5786 5788 5790 5793 5794 5795 5796 5794 5793 5788 5784 5783 5778 5774 5775 5779 5781 5782 5777 5775 5769 5771
5828 5828 5811 5850 5861 5865 5859 5828 5849 5848 5842 5833 5827 5821 5818 5819 5819 5819 5818 5818 5819 5813 5806 5805 5804 5796 5789 5786 5786 5789 5792 5795 5798 5799 5798 5795 5788 5787 5783 5784 5776 5772 5776 5780 5782 5779 5773 5771 5771
5821 5800 5812 5835 5863 5857 5852 5836 5862 5864 5856 5840 5832 5824 5820 5817 5820 5822 5823 5822 5820 5815 5810 5806 5806 5800 5794 5789 5787 5787 5791 5795 5800 5801 5801 5798 5789 5785 5784 5778 5774 5776 5776 5782 5785 5782 5779 5774 5772
5800 5802 5823 5825 5855 5856 5851 5848 5863 5869 5852 5845 5846 5834 5824 5819 5820 5824 5823 5823 5821 5818 5813 5809 5805 5803 5798 5793 5790 5790 5792 5796 5800 5802 5803 5800 5795 5785 5783 5779 5780 5782 5777 5782 5786 5783 5781 5778 5775
5820 5820 5819 5847 5866 5852 5847 5851 5859 5865 5854 5844 5845 5838 5833 5824 5828 5827 5824 5824 5822 5818 5813 5810 5805 5804 5801 5796 5791 5791 5791 5796 5799 5802 5803 5802 5801 5796 5789 5783 5784 5786 5784 5787 5787 5783 5778 5775 5778
5814 5816 5830 5852 5873 5855 5856 5850 5868 5868 5864 5854 5852 5839 5843 5831 5830 5829 5826 5827 5825 5819 5815 5811 5808 5805 5804 5801 5797 5796 5798 5801 5803 5804 5806 5806 5805 5802 5799 5795 5792 5794 5794 5795 5790 5783 5776 5777 5777
5808 5810 5826 5844 5861 5846 5851 5841 5860 5870 5861 5876 5865 5865 5857 5841 5834 5833 5831 5832 5830 5824 5821 5814 5811 5808 5806 5805 5802 5800 5802 5803 5803 5805 5806 5807 5806 5804 5803 5801 5796 5796 5795 5791 5788 5785 5781 5772 5777
5794 5827 5832 5842 5850 5822 5863 5812 5848 5869 5864 5864 5868 5854 5862 5854 5846 5838 5834 5832 5834 5831 5827 5820 5815 5811 5809 5808 5804 5802 5799 5798 5805 5809 5810 5809 5808 5807 5805 5803 5799 5798 5799 5792 5788 5788 5784 5781 5772
5806 5831 5825 5832 5833 5834 5845 5826 5851 5866 5861 5863 5870 5870 5867 5867 5857 5847 5842 5839 5841 5838 5833 5828 5820 5815 5814 5810 5809 5807 5805 5807 5811 5812 5812 5812 5812 5811 5809 5806 5803 5800 5798 5794 5792 5789 5787 5784 5778
5829 5820 5821 5823 5820 5797 5827 5832 5838 5856 5861 5876 5878 5877 5876 5873 5867 5860 5853 5846 5842 5844 5838 5833 5825 5820 5818 5815 5813 5813 5810 5811 5810 5812 5813 5816 5815 5813 5812 5810 5807 5803 5800 5797 5797 5794 5790 5787 5784
5813 5798 5775 5773 5779 5776 5826 5821 5840 5879 5887 5886 5881 5882 5885 5884 5874 5865 5856 5852 5847 5847 5845 5840 5834 5826 5825 5822 5819 5818 5818 5816 5815 5817 5816 5817 5816 5815 5815 5814 5810 5806 5803 5801 5800 5797 5793 5790 5785
5808 5805 5785 5752 5769 5784 5818 5804 5833 5876 5898 5909 5906 5897 5895 5888 5882 5874 5865 5859 5854 5852 5850 5847 5841 5834 5832 5830 5827 5825 5823 5823 5821 5822 5824 5821 5822 5823 5824 5820 5816 5812 5807 5803 5801 5798 5794 5792 5787
5805 5796 5825 5802 5815 5803 5820 5829 5856 5875 5879 5893 5904 5906 5897 5893 5889 5882 5876 5869 5862 5859 5856 5855 5848 5843 5841 5838 5834 5830 5828 5828 5827 5826 5827 5827 5827 5829 5829 5824 5819 5814 5810 5805 5802 5798 5795 5795 5791
5822 5827 5788 5800 5771 5779 5814 5829 5832 5854 5866 5880 5890 5902 5904 5901 5894 5887 5883 5876 5872 5870 5864 5859 5856 5850 5848 5844 5842 5840 5838 5834 5831 5829 5827 5827 5827 5827 5828 5823 5819 5814 5811 5808 5804 5801 5799 5795 5795
5805 5803 5804 5810 5806 5789 5798 5839 5896 5877 5880 5881 5888 5896 5903 5904 5898 5894 5889 5886 5882 5875 5870 5864 5859 5853 5850 5847 5846 5843 5840 5836 5833 5830 5829 5828 5826 5824 5825 5821 5819 5816 5813 5809 5806 5804 5803 5800 5797
5818 5808 5814 5790 5783 5812 5825 5843 5898 5901 5896 5893 5891 5895 5899 5908 5903 5900 5896 5890 5883 5879 5875 5872 5865 5861 5858 5855 5850 5846 5844 5842 5837 5833 5832 5831 5827 5826 5824 5824 5820 5818 5817 5814 5810 5807 5807 5806 5802